Location: Bourguignon
(49.5441°N, 3.1585°E)
Time: 06:59:34
(UTC+00:00)

Cosmos 372 Rocket - Pass Details

Date: 15 May 2026
Orbit: 734 x 761 km, 74.1° (Epoch: 5 June)

Event Time Altitude Azimuth Distance (km) Brightness Sun altitude
Rises 21:55:36 0° 338° (NNW) 3,194 9.0 -17.3°
Reaches altitude 10° 21:58:01 10° 343° (NNW) 2,263 7.7 -17.5°
Maximum altitude 22:03:04 57° 62° (ENE) 868 4.2 -17.9°
Enters shadow 22:05:24 30° 128° (SE) 1,301 4.7 -18.0°
